{"data":{"norad_id":64306,"intl_designator":"2025-123R","name":"STARLINK-34355","alt_names":[],"object_type":"PAYLOAD","status":"ACTIVE","operator":null,"country":"US","launch_date":"2025-06-08","launch_site_code":"AFWTR","launch_vehicle":null,"mission":null,"orbit_class":"UNKNOWN","rcs_meters":null,"size_class":null,"mass_kg":null,"dimensions":null,"purposes":["comms"],"wikipedia_slug":null,"has_3d_model":false,"image_url":null,"decayed_at":null,"tle_current":{"epoch":"2026-05-24T23:52:12.526752Z","epoch_age_seconds":72190,"freshness":"FRESH","line1":"1 64306U 25123R   26144.99458943  .00003598  00000+0  30909-3 0  9998","line2":"2 64306  70.0023   2.2474 0002838 267.2910  92.7924 14.98338198 53049","mean_motion":14.98338198,"eccentricity":0.0002838,"inclination_deg":70.0023,"raan_deg":2.2474,"arg_perigee_deg":267.291,"mean_anomaly_deg":92.7924,"bstar":0.00030909,"rev_number":5304,"period_min":96.106473286347,"perigee_km":570.05808187358,"apogee_km":574.00299696895,"semimajor_km":6950.1675394213,"source":"CELESTRAK","updated_at":"2026-05-25T13:38:20.368951Z"}}}